START_TIME,STEP,MOV.,M6,t_acc.,M7,t_acc.,M19,t_acc.,H36,t_acc.
1981-08-24 00:00:28.200 ,6,0,0.,12.0,0.,12.0,0.,12.0,0.,12.0
1981-08-24 00:00:40.200 ,6,0,0.,12.0,0.,12.0,0.,12.0,0.,12.0
1981-08-24 00:00:52.200 ,7,1,0.,12.0,0.,12.0,0.,12.0,0.,12.0
1981-08-24 00:01:04.200 ,7,1,0.,12.0,0.,12.0,0.,12.0,0.,12.0
1981-08-24 00:01:16.200 ,7,0,0.,12.0,0.,12.0,0.,12.0,0.,12.0
1981-08-24 00:01:28.200 ,7,0,0.,12.0,0.,12.0,0.,12.0,0.,12.0
1981-08-24 00:01:40.200 ,7,1,0.,12.0,0.,12.0,0.,12.0,0.,12.0
1981-08-24 00:01:52.200 ,7,1,0.,12.0,0.,12.0,0.,12.0,0.,12.0
1981-08-24 00:02:04.200 ,6,1,0.,12.0,0.,12.0,0.,12.0,0.,12.0
1981-08-24 00:02:16.200 ,6,1,0.,12.0,0.,12.0,0.,12.0,0.,12.0
1981-08-24 00:02:28.200 ,5,1,0.,12.0,0.,12.0,0.,12.0,0.,12.0
1981-08-24 00:02:40.200 ,5,1,0.,12.0,0.,12.0,0.,12.0,0.,12.0
1981-08-24 00:02:52.200 ,4,1,0.,12.0,0.,12.0,0.,12.0,0.,12.0
1981-08-24 00:03:04.200 ,4,1,0.,12.0,0.,12.0,0.,12.0,0.,12.0
1981-08-24 00:03:16.200 ,3,1,0.,12.0,0.,12.0,0.,12.0,0.,12.0
1981-08-24 00:03:28.200 ,3,1,0.,12.0,0.,12.0,0.,12.0,0.,12.0
1981-08-24 00:03:40.200 ,2,1,0.,12.0,0.,12.0,0.,12.0,0.,12.0
1981-08-24 00:03:52.200 ,2,1,0.,12.0,0.,12.0,0.,12.0,0.,12.0
1981-08-24 00:04:04.200 ,1,1,0.,12.0,0.,12.0,0.,12.0,0.,12.0
1981-08-24 00:04:16.200 ,1,1,0.,12.0,0.,12.0,0.,12.0,0.,12.0
1981-08-24 00:04:28.200 ,0,1,0.,12.0,0.,12.0,0.,12.0,0.,12.0
1981-08-24 00:04:40.200 ,0,1,0.,12.0,0.,12.0,0.,12.0,0.,12.0
1981-08-24 00:04:52.200 ,0,1,0.,12.0,0.,12.0,0.,12.0,0.,12.0
1981-08-24 00:05:04.200 ,0,1,0.,12.0,0.,12.0,0.,12.0,0.,12.0
1981-08-24 00:05:16.200 ,1,1,0.,12.0,0.,12.0,0.,12.0,0.,12.0
1981-08-24 00:05:28.200 ,1,1,0.,12.0,0.,12.0,0.,12.0,0.,12.0
1981-08-24 00:05:40.200 ,2,1,0.,12.0,0.,12.0,0.,12.0,0.,12.0
1981-08-24 00:05:52.200 ,2,1,0.,12.0,0.,12.0,0.,12.0,0.,12.0
1981-08-24 00:06:04.200 ,3,1,0.,12.0,0.,12.0,0.,12.0,0.,12.0
1981-08-24 00:06:16.200 ,3,1,0.,12.0,0.,12.0,0.,12.0,0.,12.0
1981-08-24 00:06:28.200 ,4,1,0.,12.0,0.,12.0,0.,12.0,0.,12.0
1981-08-24 00:06:40.200 ,4,1,0.,12.0,0.,12.0,0.,12.0,0.,12.0
1981-08-24 00:06:52.200 ,5,1,0.,12.0,0.,12.0,0.,12.0,0.,12.0
1981-08-24 00:07:04.200 ,5,1,0.,12.0,0.,12.0,0.,12.0,0.,12.0
1981-08-24 00:07:16.200 ,6,1,0.,12.0,0.,12.0,0.,12.0,0.,12.0
1981-08-24 00:07:28.200 ,6,1,0.,12.0,0.,12.0,0.,12.0,0.,12.0
1981-08-24 00:07:40.200 ,7,1,0.,12.0,0.,12.0,0.,12.0,0.,12.0
1981-08-24 00:07:52.200 ,7,1,0.,12.0,0.,12.0,0.,12.0,0.,12.0
1981-08-24 00:08:04.200 ,7,1,0.,12.0,0.,12.0,0.,12.0,0.,12.0
1981-08-24 00:08:16.200 ,7,1,0.,12.0,0.,12.0,0.,12.0,0.,12.0
1981-08-24 00:08:28.200 ,7,0,0.,12.0,0.,12.0,0.,12.0,0.,12.0
1981-08-24 00:08:40.200 ,7,0,0.,12.0,0.,12.0,0.,12.0,0.,12.0
1981-08-24 00:08:52.200 ,6,1,0.,12.0,0.,12.0,0.,12.0,0.,12.0
1981-08-24 00:09:04.200 ,6,1,0.,12.0,0.,12.0,0.,12.0,0.,12.0
1981-08-24 00:09:16.200 ,6,0,0.,12.0,0.,12.0,0.,12.0,0.,12.0
1981-08-24 00:09:28.200 ,6,0,0.,12.0,0.,12.0,0.,12.0,0.,12.0
1981-08-24 00:09:40.200 ,0,0,0.,12.0,0.,12.0,0.,12.0,0.,12.0
1981-08-24 00:09:52.200 ,0,0,0.,12.0,0.,12.0,0.,12.0,0.,12.0
1981-08-24 00:10:04.200 ,0,0,,0,,0,,0,,0
1981-08-24 00:10:16.200 ,0,0,,0,,0,,0,,0
1981-08-24 00:10:04.200 ,0,0,,0,,0,,0,,0
1981-08-24 00:10:16.200 ,0,0,,0,,0,,0,,0
1981-08-24 00:10:04.200 ,0,0,,0,,0,,0,,0
1981-08-24 00:10:16.200 ,0,0,,0,,0,,0,,0
1981-08-24 00:10:04.200 ,5,0,0.,12.0,0.,12.0,0.,12.0,0.,12.0
1981-08-24 00:10:16.200 ,5,0,0.,12.0,0.,12.0,0.,12.0,0.,12.0
1981-08-24 00:10:28.200 ,4,1,0.,12.0,0.,12.0,0.,12.0,0.,12.0
1981-08-24 00:10:40.200 ,4,1,0.,12.0,0.,12.0,0.,12.0,0.,12.0
1981-08-24 00:10:52.200 ,4,0,0.,12.0,0.,12.0,0.,12.0,0.,12.0
1981-08-24 00:11:04.200 ,4,0,0.,12.0,0.,12.0,0.,12.0,0.,12.0
1981-08-24 00:11:16.200 ,3,1,0.,12.0,0.,12.0,0.,12.0,0.,12.0
1981-08-24 00:11:28.200 ,3,1,0.,12.0,0.,12.0,0.,12.0,0.,12.0
1981-08-24 00:11:40.200 ,3,0,0.,12.0,0.,12.0,0.,12.0,0.,12.0
1981-08-24 00:11:52.200 ,3,0,0.,12.0,0.,12.0,0.,12.0,0.,12.0
1981-08-24 00:12:04.200 ,2,1,0.,12.0,0.,12.0,0.,12.0,0.,12.0
1981-08-24 00:12:16.200 ,2,1,0.,12.0,0.,12.0,0.,12.0,0.,12.0
1981-08-24 00:12:28.200 ,2,0,0.,12.0,0.,12.0,0.,12.0,0.,12.0
1981-08-24 00:12:40.200 ,2,0,0.,12.0,0.,12.0,0.,12.0,0.,12.0
1981-08-24 00:12:52.200 ,1,1,0.,12.0,0.,12.0,0.,12.0,0.,12.0
1981-08-24 00:13:04.200 ,1,1,0.,12.0,0.,12.0,0.,12.0,0.,12.0
1981-08-24 00:13:16.200 ,1,0,0.,12.0,0.,12.0,0.,12.0,0.,12.0
1981-08-24 00:13:28.200 ,1,0,0.,12.0,0.,12.0,0.,12.0,0.,12.0
1981-08-24 00:14:04.200 ,0,0,0.,12.0,0.,12.0,0.,12.0,0.,12.0
1981-08-24 00:14:16.200 ,0,0,0.,12.0,0.,12.0,0.,12.0,0.,12.0
1981-08-24 00:14:28.200 ,0,1,0.,12.0,0.,12.0,0.,12.0,0.,12.0
1981-08-24 00:14:40.200 ,0,1,0.,12.0,0.,12.0,0.,12.0,0.,12.0
1981-08-24 00:14:52.200 ,0,0,0.,12.0,0.,12.0,0.,12.0,0.,12.0
1981-08-24 00:15:04.200 ,0,0,0.,12.0,0.,12.0,0.,12.0,0.,12.0
1981-08-24 00:15:16.200 ,1,1,0.,12.0,0.,12.0,0.,12.0,0.,12.0
1981-08-24 00:15:28.200 ,1,1,0.,12.0,0.,12.0,0.,12.0,0.,12.0
1981-08-24 00:15:40.200 ,1,0,0.,12.0,0.,12.0,0.,12.0,0.,12.0
1981-08-24 00:15:52.200 ,1,0,0.,12.0,0.,12.0,0.,12.0,0.,12.0
1981-08-24 00:16:04.200 ,2,1,0.,12.0,0.,12.0,0.,12.0,0.,12.0
1981-08-24 00:16:16.200 ,2,1,0.,12.0,0.,12.0,0.,12.0,0.,12.0
1981-08-24 00:16:28.200 ,2,0,0.,12.0,0.,12.0,0.,12.0,0.,12.0
1981-08-24 00:16:40.200 ,2,0,0.,12.0,0.,12.0,0.,12.0,0.,12.0
1981-08-24 00:16:52.200 ,3,1,0.,12.0,0.,12.0,0.,12.0,0.,12.0
1981-08-24 00:17:04.200 ,3,1,0.,12.0,0.,12.0,0.,12.0,0.,12.0
1981-08-24 00:17:16.200 ,3,0,0.,12.0,0.,12.0,0.,12.0,0.,12.0
1981-08-24 00:17:28.200 ,3,0,0.,12.0,0.,12.0,0.,12.0,0.,12.0
1981-08-24 00:17:40.200 ,4,1,0.,12.0,0.,12.0,0.,12.0,0.,12.0
1981-08-24 00:17:52.200 ,4,1,0.,12.0,0.,12.0,0.,12.0,0.,12.0
1981-08-24 00:18:04.200 ,4,0,0.,12.0,0.,12.0,0.,12.0,0.,12.0
1981-08-24 00:18:16.200 ,4,0,0.,12.0,0.,12.0,0.,12.0,0.,12.0
1981-08-24 00:18:28.200 ,5,1,0.,12.0,0.,12.0,0.,12.0,0.,12.0
1981-08-24 00:18:40.200 ,5,1,0.,12.0,0.,12.0,0.,12.0,0.,12.0
1981-08-24 00:18:52.200 ,5,0,0.,12.0,0.,12.0,0.,12.0,0.,12.0
1981-08-24 00:19:04.200 ,5,0,0.,12.0,0.,12.0,0.,12.0,0.,12.0
1981-08-24 00:19:16.200 ,6,1,0.,12.0,0.,12.0,0.,12.0,0.,12.0
1981-08-24 00:19:28.200 ,6,1,0.,12.0,0.,12.0,0.,12.0,0.,12.0
1981-08-24 00:19:40.200 ,6,0,0.,12.0,0.,12.0,0.,12.0,0.,12.0
1981-08-24 00:19:52.200 ,6,0,0.,12.0,0.,12.0,0.,12.0,0.,12.0
1981-08-24 00:20:04.200 ,7,1,0.,12.0,0.,12.0,0.,12.0,0.,12.0
1981-08-24 00:20:16.200 ,7,1,0.,12.0,0.,12.0,0.,12.0,0.,12.0
1981-08-24 00:20:28.200 ,7,0,0.,12.0,0.,12.0,0.,12.0,0.,12.0
1981-08-24 00:20:40.200 ,7,0,0.,12.0,0.,12.0,0.,12.0,0.,12.0
1981-08-24 00:20:52.200 ,7,1,0.,12.0,0.,12.0,0.,12.0,0.,12.0
1981-08-24 00:21:04.200 ,7,1,0.,12.0,0.,12.0,0.,12.0,0.,12.0
1981-08-24 00:21:16.200 ,6,1,0.,12.0,0.,12.0,0.,12.0,0.,12.0
1981-08-24 00:21:28.200 ,6,1,0.,12.0,0.,12.0,0.,12.0,0.,12.0
1981-08-24 00:21:40.200 ,5,1,0.,12.0,0.,12.0,0.,12.0,0.,12.0
1981-08-24 00:21:52.200 ,5,1,0.,12.0,0.,12.0,0.,12.0,0.,12.0
1981-08-24 00:22:04.200 ,4,1,0.,12.0,0.,12.0,0.,12.0,0.,12.0
1981-08-24 00:22:16.200 ,4,1,0.,12.0,0.,12.0,0.,12.0,0.,12.0
1981-08-24 00:22:28.200 ,3,1,0.,12.0,0.,12.0,0.,12.0,0.,12.0
1981-08-24 00:22:40.200 ,3,1,0.,12.0,0.,12.0,0.,12.0,0.,12.0
1981-08-24 00:22:52.200 ,2,1,0.,12.0,0.,12.0,0.,12.0,0.,12.0
1981-08-24 00:23:04.200 ,2,1,0.,12.0,0.,12.0,0.,12.0,0.,12.0
1981-08-24 00:23:16.200 ,1,1,0.,12.0,0.,12.0,0.,12.0,0.,12.0
1981-08-24 00:23:28.200 ,1,1,0.,12.0,0.,12.0,0.,12.0,0.,12.0
1981-08-24 00:23:40.200 ,0,1,0.,12.0,0.,12.0,0.,12.0,0.,12.0
1981-08-24 00:23:52.200 ,0,1,0.,12.0,0.,12.0,0.,12.0,0.,12.0
1981-08-24 00:24:04.200 ,0,1,0.,12.0,0.,12.0,0.,12.0,0.,12.0
1981-08-24 00:24:16.200 ,0,1,0.,12.0,0.,12.0,0.,12.0,0.,12.0
1981-08-24 00:24:28.200 ,1,1,0.,12.0,0.,12.0,0.,12.0,0.,12.0
1981-08-24 00:24:40.200 ,1,1,0.,12.0,0.,12.0,0.,12.0,0.,12.0
1981-08-24 00:24:52.200 ,2,1,0.,12.0,0.,12.0,0.,12.0,0.,12.0
1981-08-24 00:25:04.200 ,2,1,0.,12.0,0.,12.0,0.,12.0,0.,12.0
1981-08-24 00:25:16.200 ,3,1,0.,12.0,0.,12.0,0.,12.0,0.,12.0
1981-08-24 00:25:28.200 ,3,1,0.,12.0,0.,12.0,0.,12.0,0.,12.0
1981-08-24 00:25:40.200 ,4,1,0.,12.0,0.,12.0,0.,12.0,0.,12.0
1981-08-24 00:25:52.200 ,4,1,0.,12.0,0.,12.0,0.,12.0,0.,12.0
1981-08-24 00:26:04.200 ,5,1,0.,12.0,0.,12.0,0.,12.0,0.,12.0
1981-08-24 00:26:16.200 ,5,1,0.,12.0,0.,12.0,0.,12.0,0.,12.0
1981-08-24 00:26:28.200 ,6,1,0.,12.0,0.,12.0,0.,12.0,0.,12.0
1981-08-24 00:26:40.200 ,6,1,0.,12.0,0.,12.0,0.,12.0,0.,12.0
1981-08-24 00:26:52.200 ,7,1,0.,12.0,0.,12.0,0.,12.0,0.,12.0
1981-08-24 00:27:04.200 ,7,1,0.,12.0,0.,12.0,0.,12.0,0.,12.0
1981-08-24 00:27:16.200 ,7,1,0.,12.0,0.,12.0,0.,12.0,0.,12.0
1981-08-24 00:27:28.200 ,7,1,0.,12.0,0.,12.0,0.,12.0,0.,12.0
1981-08-24 00:27:40.200 ,7,0,0.,12.0,0.,12.0,0.,12.0,0.,12.0
1981-08-24 00:27:52.200 ,7,0,0.,12.0,0.,12.0,0.,12.0,0.,12.0
1981-08-24 00:28:04.200 ,6,1,0.,12.0,0.,12.0,0.,12.0,0.,12.0
1981-08-24 00:28:16.200 ,6,1,0.,12.0,0.,12.0,0.,12.0,0.,12.0
1981-08-24 00:28:28.200 ,6,0,0.,12.0,0.,12.0,0.,12.0,0.,12.0
1981-08-24 00:28:40.200 ,6,0,0.,12.0,0.,12.0,0.,12.0,0.,12.0
1981-08-24 00:28:52.200 ,5,1,0.,12.0,0.,12.0,0.,12.0,0.,12.0
1981-08-24 00:29:04.200 ,5,1,0.,12.0,0.,12.0,0.,12.0,0.,12.0
1981-08-24 00:29:16.200 ,5,0,0.,12.0,0.,12.0,0.,12.0,0.,12.0
1981-08-24 00:29:28.200 ,5,0,0.,12.0,0.,12.0,0.,12.0,0.,12.0
1981-08-24 00:29:40.200 ,4,1,0.,12.0,0.,12.0,0.,12.0,0.,12.0
1981-08-24 00:29:52.200 ,4,1,0.,12.0,0.,12.0,0.,12.0,0.,12.0
1981-08-24 00:30:04.200 ,4,0,0.,12.0,0.,12.0,0.,12.0,0.,12.0
1981-08-24 00:30:16.200 ,4,0,0.,12.0,0.,12.0,0.,12.0,0.,12.0
1981-08-24 00:30:28.190 ,3,1,0.,12.0,0.,12.0,0.,12.0,0.,12.0
1981-08-24 00:30:40.190 ,3,1,0.,12.0,0.,12.0,0.,12.0,0.,12.0
1981-08-24 00:30:52.190 ,3,0,0.,12.0,0.,12.0,0.,12.0,0.,12.0
1981-08-24 00:31:04.190 ,3,0,0.,12.0,0.,12.0,0.,12.0,0.,12.0
1981-08-24 00:31:16.190 ,2,1,0.,12.0,0.,12.0,0.,12.0,0.,12.0
1981-08-24 00:31:28.190 ,2,1,0.,12.0,0.,12.0,0.,12.0,0.,12.0
1981-08-24 00:31:40.190 ,2,0,0.,12.0,0.,12.0,0.,12.0,0.,12.0
1981-08-24 00:31:52.190 ,2,0,0.,12.0,0.,12.0,0.,12.0,0.,12.0
1981-08-24 00:32:04.190 ,1,1,0.,12.0,0.,12.0,0.,12.0,0.,12.0
1981-08-24 00:32:16.190 ,1,1,0.,12.0,0.,12.0,0.,12.0,0.,12.0
1981-08-24 00:32:28.190 ,1,0,0.,12.0,0.,12.0,0.,12.0,0.,12.0
1981-08-24 00:32:40.190 ,1,0,0.,12.0,0.,12.0,0.,12.0,0.,12.0
1981-08-24 00:32:52.190 ,0,1,0.,12.0,0.,12.0,0.,12.0,0.,12.0
1981-08-24 00:33:04.190 ,0,1,0.,12.0,0.,12.0,0.,12.0,0.,12.0
1981-08-24 00:33:16.190 ,0,0,0.,12.0,0.,12.0,0.,12.0,0.,12.0
1981-08-24 00:33:28.190 ,0,0,0.,12.0,0.,12.0,0.,12.0,0.,12.0
1981-08-24 00:34:28.200 ,0,0,0.,12.0,0.,12.0,0.,12.0,0.,12.0
1981-08-24 00:34:40.200 ,0,0,0.,12.0,0.,12.0,0.,12.0,0.,12.0
1981-08-24 00:34:52.200 ,0,0,0.,12.0,0.,12.0,0.,12.0,0.,12.0
1981-08-24 00:35:04.200 ,0,0,0.,12.0,0.,12.0,0.,12.0,0.,12.0
1981-08-24 00:35:16.200 ,2,1,0.,12.0,0.,12.0,0.,12.0,0.,12.0
1981-08-24 00:35:28.200 ,2,1,0.,12.0,0.,12.0,0.,12.0,0.,12.0
1981-08-24 00:35:40.200 ,2,0,0.,12.0,0.,12.0,0.,12.0,0.,12.0
1981-08-24 00:35:52.200 ,2,0,0.,12.0,0.,12.0,0.,12.0,0.,12.0
1981-08-24 00:36:04.200 ,3,1,0.,12.0,0.,12.0,0.,12.0,0.,12.0
1981-08-24 00:36:16.200 ,3,1,0.,12.0,0.,12.0,0.,12.0,0.,12.0
1981-08-24 00:36:28.200 ,3,0,0.,12.0,0.,12.0,0.,12.0,0.,12.0
1981-08-24 00:36:40.200 ,3,0,0.,12.0,0.,12.0,0.,12.0,0.,12.0
1981-08-24 00:36:52.200 ,4,1,0.,12.0,0.,12.0,0.,12.0,0.,12.0
1981-08-24 00:37:04.200 ,4,1,0.,12.0,0.,12.0,0.,12.0,0.,12.0
1981-08-24 00:37:16.200 ,4,0,0.,12.0,0.,12.0,0.,12.0,0.,12.0
1981-08-24 00:37:28.200 ,4,0,0.,12.0,0.,12.0,0.,12.0,0.,12.0
1981-08-24 00:37:40.200 ,5,1,0.,12.0,0.,12.0,0.,12.0,0.,12.0
1981-08-24 00:37:52.200 ,5,1,0.,12.0,0.,12.0,0.,12.0,0.,12.0
1981-08-24 00:38:04.200 ,5,0,0.,12.0,0.,12.0,0.,12.0,0.,12.0
1981-08-24 00:38:16.200 ,5,0,0.,12.0,0.,12.0,0.,12.0,0.,12.0
1981-08-24 00:38:28.200 ,6,1,0.,12.0,0.,12.0,0.,12.0,0.,12.0
1981-08-24 00:38:40.200 ,6,1,0.,12.0,0.,12.0,0.,12.0,0.,12.0
1981-08-24 00:38:52.200 ,6,0,0.,12.0,0.,12.0,0.,12.0,0.,12.0
1981-08-24 00:39:04.200 ,6,0,0.,12.0,0.,12.0,0.,12.0,0.,12.0
1981-08-24 00:39:16.200 ,7,1,0.,12.0,0.,12.0,0.,12.0,0.,12.0
1981-08-24 00:39:28.200 ,7,1,0.,12.0,0.,12.0,0.,12.0,0.,12.0
1981-08-24 00:39:40.200 ,7,0,0.,12.0,0.,12.0,0.,12.0,0.,12.0
1981-08-24 00:39:52.200 ,7,0,0.,12.0,0.,12.0,0.,12.0,0.,12.0
1981-08-24 00:40:04.200 ,7,1,0.,12.0,0.,12.0,0.,12.0,0.,12.0
1981-08-24 00:40:16.200 ,7,1,0.,12.0,0.,12.0,0.,12.0,0.,12.0
1981-08-24 00:40:28.200 ,6,1,0.,12.0,0.,12.0,0.,12.0,0.,12.0
1981-08-24 00:40:40.200 ,6,1,0.,12.0,0.,12.0,0.,12.0,0.,12.0
1981-08-24 00:40:52.200 ,5,1,0.,12.0,0.,12.0,0.,12.0,0.,12.0
1981-08-24 00:41:04.200 ,5,1,0.,12.0,0.,12.0,0.,12.0,0.,12.0
1981-08-24 00:41:16.200 ,4,1,0.,12.0,0.,12.0,0.,12.0,0.,12.0
1981-08-24 00:41:28.200 ,4,1,0.,12.0,0.,12.0,0.,12.0,0.,12.0
1981-08-24 00:41:40.200 ,3,1,0.,12.0,0.,12.0,0.,12.0,0.,12.0
1981-08-24 00:41:52.200 ,3,1,0.,12.0,0.,12.0,0.,12.0,0.,12.0
1981-08-24 00:42:04.200 ,2,1,0.,12.0,0.,12.0,0.,12.0,0.,12.0
1981-08-24 00:42:16.200 ,2,1,0.,12.0,0.,12.0,0.,12.0,0.,12.0
1981-08-24 00:42:28.200 ,1,1,0.,12.0,0.,12.0,0.,12.0,0.,12.0
1981-08-24 00:42:40.200 ,1,1,0.,12.0,0.,12.0,0.,12.0,0.,12.0
1981-08-24 00:42:52.200 ,0,1,0.,12.0,0.,12.0,0.,12.0,0.,12.0
1981-08-24 00:43:04.200 ,0,1,0.,12.0,0.,12.0,0.,12.0,0.,12.0
1981-08-24 00:43:16.200 ,0,1,0.,12.0,0.,12.0,0.,12.0,0.,12.0
1981-08-24 00:43:28.200 ,0,1,0.,12.0,0.,12.0,0.,12.0,0.,12.0
1981-08-24 00:43:40.200 ,1,1,0.,12.0,0.,12.0,0.,12.0,0.,12.0
1981-08-24 00:43:52.200 ,1,1,0.,12.0,0.,12.0,0.,12.0,0.,12.0
1981-08-24 00:44:04.200 ,2,1,0.,12.0,0.,12.0,0.,12.0,0.,12.0
1981-08-24 00:44:16.200 ,2,1,0.,12.0,0.,12.0,0.,12.0,0.,12.0
1981-08-24 00:44:28.200 ,3,1,0.,12.0,0.,12.0,0.,12.0,0.,12.0
1981-08-24 00:44:40.200 ,3,1,0.,12.0,0.,12.0,0.,12.0,0.,12.0
1981-08-24 00:44:52.200 ,4,1,0.,12.0,0.,12.0,0.,12.0,0.,12.0
1981-08-24 00:45:04.200 ,4,1,0.,12.0,0.,12.0,0.,12.0,0.,12.0
1981-08-24 00:45:16.200 ,5,1,0.,12.0,0.,12.0,0.,12.0,0.,12.0
1981-08-24 00:45:28.200 ,5,1,0.,12.0,0.,12.0,0.,12.0,0.,12.0
1981-08-24 00:45:40.200 ,6,1,0.,12.0,0.,12.0,0.,12.0,0.,12.0
1981-08-24 00:45:52.200 ,6,1,0.,12.0,0.,12.0,0.,12.0,0.,12.0
1981-08-24 00:46:04.200 ,7,1,0.,12.0,0.,12.0,0.,12.0,0.,12.0
1981-08-24 00:46:16.200 ,7,1,0.,12.0,0.,12.0,0.,12.0,0.,12.0
1981-08-24 00:46:28.190 ,7,1,0.,12.0,0.,12.0,0.,12.0,0.,12.0
1981-08-24 00:46:40.190 ,7,1,0.,12.0,0.,12.0,0.,12.0,0.,12.0
1981-08-24 00:46:52.190 ,7,0,0.,12.0,0.,12.0,0.,12.0,0.,12.0
1981-08-24 00:47:04.190 ,7,0,0.,12.0,0.,12.0,0.,12.0,0.,12.0
1981-08-24 00:47:16.190 ,6,1,0.,12.0,0.,12.0,0.,12.0,0.,12.0
1981-08-24 00:47:28.190 ,6,1,0.,12.0,0.,12.0,0.,12.0,0.,12.0
1981-08-24 00:47:40.190 ,6,0,0.,12.0,0.,12.0,0.,12.0,0.,12.0
1981-08-24 00:47:52.190 ,6,0,0.,12.0,0.,12.0,0.,12.0,0.,12.0
1981-08-24 00:48:04.190 ,5,1,0.,12.0,0.,12.0,0.,12.0,0.,12.0
1981-08-24 00:48:16.190 ,5,1,0.,12.0,0.,12.0,0.,12.0,0.,12.0
1981-08-24 00:48:28.190 ,5,0,0.,12.0,0.,12.0,0.,12.0,0.,12.0
1981-08-24 00:48:40.190 ,5,0,0.,12.0,0.,12.0,0.,12.0,0.,12.0
1981-08-24 00:48:52.190 ,4,1,0.,12.0,0.,12.0,0.,12.0,0.,12.0
1981-08-24 00:49:04.190 ,4,1,0.,12.0,0.,12.0,0.,12.0,0.,12.0
1981-08-24 00:49:16.190 ,4,0,0.,12.0,0.,12.0,0.,12.0,0.,12.0
1981-08-24 00:49:28.190 ,4,0,0.,12.0,0.,12.0,0.,12.0,0.,12.0
1981-08-24 00:49:40.190 ,3,1,0.,12.0,0.,12.0,0.,12.0,0.,12.0
1981-08-24 00:49:52.190 ,3,1,0.,12.0,0.,12.0,0.,12.0,0.,12.0
1981-08-24 00:50:04.190 ,3,0,0.,12.0,0.,12.0,0.,12.0,0.,12.0
1981-08-24 00:50:16.190 ,3,0,0.,12.0,0.,12.0,0.,12.0,0.,12.0
1981-08-24 00:50:28.190 ,2,1,0.,12.0,0.,12.0,0.,12.0,0.,12.0
1981-08-24 00:50:40.190 ,2,1,0.,12.0,0.,12.0,0.,12.0,0.,12.0
1981-08-24 00:50:52.190 ,2,0,0.,12.0,0.,12.0,0.,12.0,0.,12.0
1981-08-24 00:51:04.190 ,2,0,0.,12.0,0.,12.0,0.,12.0,0.,12.0
1981-08-24 00:51:16.190 ,1,1,0.,12.0,0.,12.0,0.,12.0,0.,12.0
1981-08-24 00:51:28.190 ,1,1,0.,12.0,0.,12.0,0.,12.0,0.,12.0
1981-08-24 00:51:40.190 ,1,0,0.,12.0,0.,12.0,0.,12.0,0.,12.0
1981-08-24 00:51:52.190 ,1,0,0.,12.0,0.,12.0,0.,12.0,0.,12.0
1981-08-24 00:52:04.190 ,0,1,0.,12.0,0.,12.0,0.,12.0,0.,12.0
1981-08-24 00:52:16.190 ,0,1,0.,12.0,0.,12.0,0.,12.0,0.,12.0
1981-08-24 00:52:28.190 ,0,0,0.,12.0,0.,12.0,0.,12.0,0.,12.0
1981-08-24 00:52:40.190 ,0,0,0.,12.0,0.,12.0,0.,12.0,0.,12.0
1981-08-24 00:52:52.190 ,0,1,0.,12.0,0.,12.0,0.,12.0,0.,12.0
1981-08-24 00:53:04.190 ,0,1,0.,12.0,0.,12.0,0.,12.0,0.,12.0
1981-08-24 00:53:16.190 ,0,0,0.,12.0,0.,12.0,0.,12.0,0.,12.0
1981-08-24 00:53:28.190 ,0,0,0.,12.0,0.,12.0,0.,12.0,0.,12.0
1981-08-24 00:53:40.190 ,1,1,0.,12.0,0.,12.0,0.,12.0,0.,12.0
1981-08-24 00:53:52.190 ,1,1,0.,12.0,0.,12.0,0.,12.0,0.,12.0
1981-08-24 00:54:04.190 ,1,0,0.,12.0,0.,12.0,0.,12.0,0.,12.0
1981-08-24 00:54:16.190 ,1,0,0.,12.0,0.,12.0,0.,12.0,0.,12.0
1981-08-24 00:54:28.190 ,2,1,0.,12.0,0.,12.0,0.,12.0,0.,12.0
1981-08-24 00:54:40.190 ,2,1,0.,12.0,0.,12.0,0.,12.0,0.,12.0
1981-08-24 00:54:52.190 ,2,0,0.,12.0,0.,12.0,0.,12.0,0.,12.0
1981-08-24 00:55:04.190 ,2,0,0.,12.0,0.,12.0,0.,12.0,0.,12.0
1981-08-24 00:55:16.190 ,3,1,0.,12.0,0.,12.0,0.,12.0,0.,12.0
1981-08-24 00:55:28.190 ,3,1,0.,12.0,0.,12.0,0.,12.0,0.,12.0
1981-08-24 00:55:40.190 ,3,0,0.,12.0,0.,12.0,0.,12.0,0.,12.0
1981-08-24 00:55:52.190 ,3,0,0.,12.0,0.,12.0,0.,12.0,0.,12.0
1981-08-24 00:56:04.190 ,4,1,0.,12.0,0.,12.0,0.,12.0,0.,12.0
1981-08-24 00:56:16.190 ,4,1,0.,12.0,0.,12.0,0.,12.0,0.,12.0
1981-08-24 00:56:28.190 ,4,0,0.,12.0,0.,12.0,0.,12.0,0.,12.0
1981-08-24 00:56:40.190 ,4,0,0.,12.0,0.,12.0,0.,12.0,0.,12.0
1981-08-24 00:56:52.190 ,5,1,0.,12.0,0.,12.0,0.,12.0,0.,12.0
1981-08-24 00:57:04.190 ,5,1,0.,12.0,0.,12.0,0.,12.0,0.,12.0
1981-08-24 00:57:16.190 ,5,0,0.,12.0,0.,12.0,0.,12.0,0.,12.0
1981-08-24 00:57:28.190 ,5,0,0.,12.0,0.,12.0,0.,12.0,0.,12.0
1981-08-24 00:57:40.190 ,6,1,0.,12.0,0.,12.0,0.,12.0,0.,12.0
1981-08-24 00:57:52.190 ,6,1,0.,12.0,0.,12.0,0.,12.0,0.,12.0
1981-08-24 00:58:04.190 ,6,0,0.,12.0,0.,12.0,0.,12.0,0.,12.0
1981-08-24 00:58:16.190 ,6,0,0.,12.0,0.,12.0,0.,12.0,0.,12.0
1981-08-24 00:58:28.190 ,7,1,0.,12.0,0.,12.0,0.,12.0,0.,12.0
1981-08-24 00:58:40.190 ,7,1,0.,12.0,0.,12.0,0.,12.0,0.,12.0
1981-08-24 00:58:52.190 ,7,0,0.,12.0,0.,12.0,0.,12.0,0.,12.0
1981-08-24 00:59:04.190 ,7,0,0.,12.0,0.,12.0,0.,12.0,0.,12.0
1981-08-24 00:59:16.190 ,7,1,0.,12.0,0.,12.0,0.,12.0,0.,12.0
1981-08-24 00:59:28.190 ,7,1,0.,12.0,0.,12.0,0.,12.0,0.,12.0
1981-08-24 00:59:40.190 ,6,1,0.,12.0,0.,12.0,0.,12.0,0.,12.0
1981-08-24 00:59:52.190 ,6,1,0.,12.0,0.,12.0,0.,12.0,0.,12.0
1981-08-24 01:00:04.190 ,5,1,0.,12.0,0.,12.0,0.,12.0,0.,12.0
1981-08-24 01:00:16.190 ,5,1,0.,12.0,0.,12.0,0.,12.0,0.,12.0
1981-08-24 01:00:28.190 ,4,1,0.,12.0,0.,12.0,0.,12.0,0.,12.0
1981-08-24 01:00:40.190 ,4,1,0.,12.0,0.,12.0,0.,12.0,0.,12.0
1981-08-24 01:00:52.190 ,3,1,0.,12.0,0.,12.0,0.,12.0,0.,12.0
1981-08-24 01:01:04.190 ,3,1,0.,12.0,0.,12.0,0.,12.0,0.,12.0
1981-08-24 01:01:16.190 ,2,1,0.,12.0,0.,12.0,0.,12.0,0.,12.0
1981-08-24 01:01:28.190 ,2,1,0.,12.0,0.,12.0,0.,12.0,0.,12.0
1981-08-24 01:01:40.190 ,1,1,0.,12.0,0.,12.0,0.,12.0,0.,12.0
1981-08-24 01:01:52.190 ,1,1,0.,12.0,0.,12.0,0.,12.0,0.,12.0
1981-08-24 01:02:04.190 ,0,1,0.,12.0,0.,12.0,0.,12.0,0.,12.0
1981-08-24 01:02:16.190 ,0,1,0.,12.0,0.,12.0,0.,12.0,0.,12.0
1981-08-24 01:02:28.190 ,0,1,0.,12.0,0.,12.0,0.,12.0,0.,12.0
1981-08-24 01:02:40.190 ,0,1,0.,12.0,0.,12.0,0.,12.0,0.,12.0
1981-08-24 01:02:52.190 ,1,1,0.,12.0,0.,12.0,0.,12.0,0.,12.0
1981-08-24 01:03:04.190 ,1,1,0.,12.0,0.,12.0,0.,12.0,0.,12.0
1981-08-24 01:03:16.190 ,2,1,0.,12.0,0.,12.0,0.,12.0,0.,12.0
1981-08-24 01:03:28.190 ,2,1,0.,12.0,0.,12.0,0.,12.0,0.,12.0
1981-08-24 01:03:40.190 ,3,1,0.,12.0,0.,12.0,0.,12.0,0.,12.0
1981-08-24 01:03:52.190 ,3,1,0.,12.0,0.,12.0,0.,12.0,0.,12.0
1981-08-24 01:04:04.190 ,4,1,0.,12.0,0.,12.0,0.,12.0,0.,12.0
1981-08-24 01:04:16.190 ,4,1,0.,12.0,0.,12.0,0.,12.0,0.,12.0
1981-08-24 01:04:28.190 ,5,1,0.,12.0,0.,12.0,0.,12.0,0.,12.0
1981-08-24 01:04:40.190 ,5,1,0.,12.0,0.,12.0,0.,12.0,0.,12.0
1981-08-24 01:04:52.190 ,6,1,0.,12.0,0.,12.0,0.,12.0,0.,12.0
1981-08-24 01:05:04.190 ,6,1,0.,12.0,0.,12.0,0.,12.0,0.,12.0
1981-08-24 01:05:16.190 ,7,1,0.,12.0,0.,12.0,0.,12.0,0.,12.0
1981-08-24 01:05:28.190 ,7,1,0.,12.0,0.,12.0,0.,12.0,0.,12.0
1981-08-24 01:05:40.190 ,7,1,0.,12.0,0.,12.0,0.,12.0,0.,12.0
1981-08-24 01:05:52.190 ,7,1,0.,12.0,0.,12.0,0.,12.0,0.,12.0
1981-08-24 01:06:04.190 ,7,0,0.,12.0,0.,12.0,0.,12.0,0.,12.0
1981-08-24 01:06:16.190 ,7,0,0.,12.0,0.,12.0,0.,12.0,0.,12.0
1981-08-24 01:06:28.190 ,6,1,0.,12.0,0.,12.0,0.,12.0,0.,12.0
1981-08-24 01:06:40.190 ,6,1,0.,12.0,0.,12.0,0.,12.0,0.,12.0
1981-08-24 01:06:52.190 ,6,0,0.,12.0,0.,12.0,0.,12.0,0.,12.0
1981-08-24 01:07:04.190 ,6,0,0.,12.0,0.,12.0,0.,12.0,0.,12.0
1981-08-24 01:07:16.190 ,5,1,0.,12.0,0.,12.0,0.,12.0,0.,12.0
1981-08-24 01:07:28.190 ,5,1,0.,12.0,0.,12.0,0.,12.0,0.,12.0
1981-08-24 01:07:40.190 ,5,0,0.,12.0,0.,12.0,0.,12.0,0.,12.0
1981-08-24 01:07:52.190 ,5,0,0.,12.0,0.,12.0,0.,12.0,0.,12.0
1981-08-24 01:08:04.190 ,4,1,0.,12.0,0.,12.0,0.,12.0,0.,12.0
1981-08-24 01:08:16.190 ,4,1,0.,12.0,0.,12.0,0.,12.0,0.,12.0
1981-08-24 01:08:28.190 ,4,0,0.,12.0,0.,12.0,0.,12.0,0.,12.0
1981-08-24 01:08:40.190 ,4,0,0.,12.0,0.,12.0,0.,12.0,0.,12.0
1981-08-24 01:08:52.190 ,3,1,0.,12.0,0.,12.0,0.,12.0,0.,12.0
1981-08-24 01:09:04.190 ,3,1,0.,12.0,0.,12.0,0.,12.0,0.,12.0
1981-08-24 01:09:16.190 ,3,0,0.,12.0,0.,12.0,0.,12.0,0.,12.0
1981-08-24 01:09:28.190 ,3,0,0.,12.0,0.,12.0,0.,12.0,0.,12.0
1981-08-24 01:09:40.190 ,2,1,0.,12.0,0.,12.0,0.,12.0,0.,12.0
1981-08-24 01:09:52.190 ,2,1,0.,12.0,0.,12.0,0.,12.0,0.,12.0
1981-08-24 01:10:04.190 ,2,0,0.,12.0,0.,12.0,0.,12.0,0.,12.0
1981-08-24 01:10:16.190 ,2,0,0.,12.0,0.,12.0,0.,12.0,0.,12.0
1981-08-24 01:10:28.190 ,1,1,0.,12.0,0.,12.0,0.,12.0,0.,12.0
1981-08-24 01:10:40.190 ,1,1,0.,12.0,0.,12.0,0.,12.0,0.,12.0
1981-08-24 01:10:52.190 ,1,0,0.,12.0,0.,12.0,0.,12.0,0.,12.0
1981-08-24 01:11:04.190 ,1,0,0.,12.0,0.,12.0,0.,12.0,0.,12.0
1981-08-24 01:11:16.190 ,0,1,0.,12.0,0.,12.0,0.,12.0,0.,12.0
1981-08-24 01:11:28.190 ,0,1,0.,12.0,0.,12.0,0.,12.0,0.,12.0
1981-08-24 01:11:40.190 ,0,0,0.,12.0,0.,12.0,0.,12.0,0.,12.0
1981-08-24 01:11:52.190 ,0,0,0.,12.0,0.,12.0,0.,12.0,0.,12.0
1981-08-24 01:12:04.190 ,0,1,0.,12.0,0.,12.0,0.,12.0,0.,12.0
1981-08-24 01:12:16.190 ,0,1,0.,12.0,0.,12.0,0.,12.0,0.,12.0
1981-08-24 01:12:28.190 ,0,0,0.,12.0,0.,12.0,0.,12.0,0.,12.0
1981-08-24 01:12:40.190 ,0,0,0.,12.0,0.,12.0,0.,12.0,0.,12.0
1981-08-24 01:12:52.190 ,1,1,0.,12.0,0.,12.0,0.,12.0,0.,12.0
1981-08-24 01:13:04.190 ,1,1,0.,12.0,0.,12.0,0.,12.0,0.,12.0
1981-08-24 01:13:16.190 ,1,0,0.,12.0,0.,12.0,0.,12.0,0.,12.0
1981-08-24 01:13:28.190 ,1,0,0.,12.0,0.,12.0,0.,12.0,0.,12.0
1981-08-24 01:13:40.190 ,2,1,0.,12.0,0.,12.0,0.,12.0,0.,12.0
1981-08-24 01:13:52.190 ,2,1,0.,12.0,0.,12.0,0.,12.0,0.,12.0
1981-08-24 01:14:04.190 ,2,0,0.,12.0,0.,12.0,0.,12.0,0.,12.0
1981-08-24 01:14:16.190 ,2,0,0.,12.0,0.,12.0,0.,12.0,0.,12.0
1981-08-24 01:14:28.190 ,3,1,0.,12.0,0.,12.0,0.,12.0,0.,12.0
1981-08-24 01:14:40.190 ,3,1,0.,12.0,0.,12.0,0.,12.0,0.,12.0
1981-08-24 01:14:52.190 ,3,0,0.,12.0,0.,12.0,0.,12.0,0.,12.0
1981-08-24 01:15:04.190 ,3,0,0.,12.0,0.,12.0,0.,12.0,0.,12.0
1981-08-24 01:15:16.190 ,4,1,0.,12.0,0.,12.0,0.,12.0,0.,12.0
1981-08-24 01:15:28.190 ,4,1,0.,12.0,0.,12.0,0.,12.0,0.,12.0
1981-08-24 01:15:40.190 ,4,0,0.,12.0,0.,12.0,0.,12.0,0.,12.0
1981-08-24 01:15:52.190 ,4,0,0.,12.0,0.,12.0,0.,12.0,0.,12.0
1981-08-24 01:16:04.190 ,5,1,0.,12.0,0.,12.0,0.,12.0,0.,12.0
1981-08-24 01:16:16.190 ,5,1,0.,12.0,0.,12.0,0.,12.0,0.,12.0
1981-08-24 01:16:28.190 ,5,0,0.,12.0,0.,12.0,0.,12.0,0.,12.0
1981-08-24 01:16:40.190 ,5,0,0.,12.0,0.,12.0,0.,12.0,0.,12.0
1981-08-24 01:16:52.190 ,6,1,0.,12.0,0.,12.0,0.,12.0,0.,12.0
1981-08-24 01:17:04.190 ,6,1,0.,12.0,0.,12.0,0.,12.0,0.,12.0
1981-08-24 01:17:16.190 ,6,0,0.,12.0,0.,12.0,0.,12.0,0.,12.0
1981-08-24 01:17:28.190 ,6,0,0.,12.0,0.,12.0,0.,12.0,0.,12.0
1981-08-24 01:17:40.190 ,7,1,0.,12.0,0.,12.0,0.,12.0,0.,12.0
1981-08-24 01:17:52.190 ,7,1,0.,12.0,0.,12.0,0.,12.0,0.,12.0